Tucson Davis Monthan, AZ

8:42 AM MST on December 09, 2019 (GMT -0700)
Davis-Monthan Air Force Base

Weather History for KDMA - October, 2019

Change the Weather History Date:

Wednesday, October 16, 2019

  Actual Average Record
Temperature  
Mean Temperature 74 °F -  
Max Temperature 90 °F 83 °F 100 °F (1991)
Min Temperature 59 °F 56 °F 43 °F (1980)
Cooling Degree Days 10    
Growing Degree Days 24 (Base 50)    
Moisture  
Dew Point 38 °F    
Average Humidity 26    
Maximum Humidity 43    
Minimum Humidity 14    
Precipitation  
Precipitation 0.00 in - - ()
Sea Level Pressure  
Sea Level Pressure 29.86 in    
Wind  
Wind Speed 8 mph (East)    
Max Wind Speed 16 mph    
Max Gust Speed 18 mph    
Visibility 10 miles    
Events      
Averages and records for this station are not official NWS values.
T = Trace of Precipitation, MM = Missing Value Source: NWS Daily Summary

Daily Weather History Graph

Daily Weather History Graph

Search for Another Location

Airport or City:

Astronomy

Oct. 16, 2019 Rise Set
Actual Time 6:27 AM MST 5:49 PM MST
Civil Twilight 6:03 AM MST 6:14 PM MST
Nautical Twilight 5:34 AM MST 6:43 PM MST
Astronomical Twilight 5:06 AM MST 7:11 PM MST
Moon 7:53 PM MST (10/16) 8:55 AM MST (10/16)
Length of Visible Light 12h 11m
Length of Day
11h 22m
Waning Gibbous, 92% of the Moon is Illuminated
Oct 16
Waning Gibbous
Oct 21
Last Quarter
Oct 27
New
Nov 4
First Quarter
Nov 12
Full

Hourly Weather History & Observations

Time (MST) Temp. Dew Point Humidity Pressure Visibility Wind Dir Wind Speed Gust Speed Precip Events Conditions
12:58 AM 64.6 °F 36.3 °F 35% 29.91 in 10.0 mi ESE 8.1 mph - N/A   Clear
1:58 AM 63.7 °F 36.9 °F 37% 29.92 in 10.0 mi East 4.6 mph - N/A   Clear
2:58 AM 64.0 °F 36.5 °F 36% 29.92 in 10.0 mi SE 8.1 mph - N/A   Clear
3:58 AM 64.6 °F 35.6 °F 34% 29.91 in 10.0 mi ESE 8.1 mph - N/A   Clear
4:58 AM 61.5 °F 37.0 °F 40% 29.93 in 10.0 mi SE 4.6 mph - N/A   Clear
5:58 AM 59.9 °F 37.4 °F 43% 29.93 in 10.0 mi SSE 3.5 mph - N/A   Clear
6:58 AM 64.2 °F 39.4 °F 40% 29.94 in 10.0 mi SSE 6.9 mph - N/A   Clear
7:58 AM 70.9 °F 40.3 °F 33% 29.96 in 10.0 mi ESE 6.9 mph - N/A   Clear
8:58 AM 77.0 °F 40.5 °F 27% 29.96 in 10.0 mi ESE 10.4 mph - N/A   Clear
9:58 AM 81.1 °F 40.8 °F 24% 29.95 in 10.0 mi ESE 9.2 mph - N/A   Clear
10:58 AM 85.6 °F 37.2 °F 18% 29.93 in 10.0 mi NE 11.5 mph - N/A   Clear
11:56 AM 88.0 °F 32.7 °F 14% 29.90 in 10.0 mi East 5.8 mph 17.3 mph N/A   Clear
12:58 PM 89.4 °F 35.6 °F 15% 29.86 in 10.0 mi ENE 13.8 mph 18.4 mph N/A   Clear
1:58 PM 89.8 °F 37.6 °F 16% 29.81 in 10.0 mi ENE 15.0 mph 18.4 mph N/A   Clear
2:58 PM 90.5 °F 36.5 °F 15% 29.81 in 10.0 mi ESE 8.1 mph - N/A   Clear
3:58 PM 90.5 °F 38.1 °F 16% 29.78 in 10.0 mi East 16.1 mph - N/A   Clear
4:58 PM 89.4 °F 37.2 °F 16% 29.77 in 10.0 mi East 13.8 mph - N/A   Clear
5:58 PM 86.0 °F 38.8 °F 19% 29.76 in 10.0 mi ENE 10.4 mph - N/A   Clear
6:58 PM 81.3 °F 39.9 °F 23% 29.78 in 10.0 mi NE 13.8 mph - N/A   Clear
7:58 PM 79.3 °F 38.3 °F 23% 29.78 in 10.0 mi ENE 9.2 mph - N/A   Clear
8:58 PM 78.8 °F 37.8 °F 23% 29.78 in 10.0 mi NE 10.4 mph - N/A   Clear
9:58 PM 78.6 °F 39.9 °F 25% 29.78 in 10.0 mi NE 9.2 mph - N/A   Clear
10:58 PM 77.9 °F 41.2 °F 27% 29.77 in 10.0 mi East 3.5 mph - N/A   Clear
11:58 PM 76.1 °F 39.7 °F 27% 29.89 in 10.0 mi ENE 8.1 mph - N/A   Clear